TimeCDT,TemperatureF,Dew PointF,Humidity,Sea Level PressureIn,VisibilityMPH,Wind Direction,Wind SpeedMPH,Gust SpeedMPH,PrecipitationIn,Events,Conditions,WindDirDegrees,DateUTC
12:15 AM,66.2,62.6,88,30.06,10.0,South,6.9,-,N/A,,Clear,180,2013-08-12 05:15:00
12:35 AM,66.2,62.6,88,30.06,10.0,South,8.1,-,N/A,,Clear,190,2013-08-12 05:35:00
12:55 AM,66.2,62.6,88,30.06,10.0,South,5.8,-,N/A,,Clear,190,2013-08-12 05:55:00
1:15 AM,66.2,62.6,88,30.05,10.0,South,8.1,-,N/A,,Clear,180,2013-08-12 06:15:00
1:35 AM,66.2,62.6,88,30.05,10.0,South,6.9,-,N/A,,Clear,190,2013-08-12 06:35:00
1:55 AM,66.2,64.4,94,30.05,10.0,South,6.9,-,N/A,,Scattered Clouds,180,2013-08-12 06:55:00
2:15 AM,66.2,64.4,94,30.04,10.0,South,6.9,-,N/A,,Overcast,190,2013-08-12 07:15:00
2:35 AM,66.2,64.4,94,30.04,10.0,South,6.9,-,N/A,,Overcast,190,2013-08-12 07:35:00
2:55 AM,66.2,64.4,94,30.04,10.0,SSW,8.1,-,N/A,,Overcast,200,2013-08-12 07:55:00
3:15 AM,66.2,64.4,94,30.04,10.0,WSW,4.6,-,N/A,,Overcast,240,2013-08-12 08:15:00
3:35 AM,66.2,64.4,94,30.04,10.0,West,3.5,-,N/A,,Overcast,270,2013-08-12 08:35:00
3:55 AM,66.2,64.4,94,30.03,10.0,West,4.6,-,N/A,,Overcast,280,2013-08-12 08:55:00
4:15 AM,66.2,64.4,94,30.02,10.0,SW,3.5,-,N/A,,Mostly Cloudy,220,2013-08-12 09:15:00
4:35 AM,66.2,62.6,88,30.02,10.0,SW,3.5,-,N/A,,Clear,230,2013-08-12 09:35:00
4:55 AM,66.2,62.6,88,30.01,10.0,West,4.6,-,N/A,,Partly Cloudy,270,2013-08-12 09:55:00
5:15 AM,66.2,62.6,88,30.01,10.0,West,3.5,-,N/A,,Partly Cloudy,260,2013-08-12 10:15:00
5:35 AM,66.2,62.6,88,30.01,10.0,Calm,Calm,-,N/A,,Clear,0,2013-08-12 10:35:00
5:55 AM,66.2,62.6,88,30.02,10.0,WSW,4.6,-,N/A,,Scattered Clouds,240,2013-08-12 10:55:00
6:15 AM,64.4,62.6,94,30.02,10.0,Calm,Calm,-,N/A,,Partly Cloudy,0,2013-08-12 11:15:00
6:35 AM,64.4,62.6,94,30.02,10.0,SW,4.6,-,N/A,,Clear,220,2013-08-12 11:35:00
6:55 AM,64.4,62.6,94,30.02,10.0,SW,3.5,-,N/A,,Clear,230,2013-08-12 11:55:00
7:15 AM,66.2,62.6,88,30.01,10.0,SSW,3.5,-,N/A,,Clear,210,2013-08-12 12:15:00
7:35 AM,66.2,64.4,94,30.00,10.0,SW,3.5,-,N/A,,Clear,230,2013-08-12 12:35:00
7:55 AM,68.0,64.4,88,30.00,10.0,West,4.6,-,N/A,,Clear,260,2013-08-12 12:55:00
8:15 AM,69.8,64.4,83,30.00,10.0,West,5.8,-,N/A,,Clear,260,2013-08-12 13:15:00
8:35 AM,71.6,64.4,78,30.00,10.0,WSW,8.1,-,N/A,,Partly Cloudy,240,2013-08-12 13:35:00
8:55 AM,71.6,64.4,78,30.01,10.0,WSW,9.2,-,N/A,,Mostly Cloudy,250,2013-08-12 13:55:00
9:15 AM,71.6,64.4,78,30.01,10.0,West,8.1,-,N/A,,Mostly Cloudy,270,2013-08-12 14:15:00
9:35 AM,71.6,64.4,78,30.00,10.0,West,6.9,-,N/A,,Scattered Clouds,280,2013-08-12 14:35:00
9:55 AM,71.6,64.4,78,30.00,10.0,West,6.9,-,N/A,,Mostly Cloudy,280,2013-08-12 14:55:00
10:15 AM,73.4,64.4,73,30.01,10.0,West,5.8,-,N/A,,Partly Cloudy,260,2013-08-12 15:15:00
10:35 AM,73.4,66.2,78,30.01,10.0,West,6.9,-,N/A,,Mostly Cloudy,270,2013-08-12 15:35:00
10:55 AM,73.4,66.2,78,30.01,10.0,West,8.1,-,N/A,,Mostly Cloudy,280,2013-08-12 15:55:00
11:15 AM,73.4,66.2,78,30.01,10.0,West,8.1,-,N/A,,Scattered Clouds,280,2013-08-12 16:15:00
11:35 AM,75.2,66.2,73,30.01,10.0,WNW,8.1,-,N/A,,Partly Cloudy,290,2013-08-12 16:35:00
11:55 AM,75.2,66.2,73,30.01,10.0,WNW,8.1,-,N/A,,Clear,300,2013-08-12 16:55:00
12:15 PM,75.2,69.8,83,30.00,10.0,WNW,6.9,-,N/A,,Scattered Clouds,300,2013-08-12 17:15:00
12:35 PM,75.2,68.0,78,29.99,10.0,NW,9.2,-,N/A,,Mostly Cloudy,310,2013-08-12 17:35:00
12:55 PM,75.2,68.0,78,29.99,10.0,NW,8.1,-,N/A,,Scattered Clouds,310,2013-08-12 17:55:00
1:15 PM,77.0,68.0,74,29.99,10.0,NW,6.9,-,N/A,,Partly Cloudy,310,2013-08-12 18:15:00
1:35 PM,78.8,68.0,69,29.99,10.0,NW,9.2,-,N/A,,Partly Cloudy,310,2013-08-12 18:35:00
1:55 PM,78.8,68.0,69,29.99,10.0,NW,9.2,16.1,N/A,,Mostly Cloudy,320,2013-08-12 18:55:00
2:15 PM,78.8,68.0,69,29.98,10.0,WNW,9.2,-,N/A,,Scattered Clouds,290,2013-08-12 19:15:00
2:35 PM,78.8,66.2,65,29.98,10.0,NW,11.5,-,N/A,,Mostly Cloudy,310,2013-08-12 19:35:00
2:55 PM,80.6,66.2,61,29.97,10.0,NW,11.5,-,N/A,,Partly Cloudy,310,2013-08-12 19:55:00
3:15 PM,80.6,66.2,61,29.97,10.0,WNW,10.4,-,N/A,,Mostly Cloudy,300,2013-08-12 20:15:00
3:35 PM,80.6,66.2,61,29.97,10.0,North,9.2,-,N/A,,Mostly Cloudy,350,2013-08-12 20:35:00
3:55 PM,80.6,64.4,58,29.96,10.0,WNW,9.2,-,N/A,,Partly Cloudy,300,2013-08-12 20:55:00
4:15 PM,78.8,64.4,61,29.96,10.0,NNW,6.9,-,N/A,,Scattered Clouds,330,2013-08-12 21:15:00
4:35 PM,80.6,64.4,58,29.96,10.0,NW,10.4,-,N/A,,Partly Cloudy,320,2013-08-12 21:35:00
4:55 PM,80.6,62.6,54,29.95,10.0,NW,8.1,-,N/A,,Clear,320,2013-08-12 21:55:00
5:15 PM,78.8,62.6,57,29.95,10.0,NNW,8.1,-,N/A,,Clear,340,2013-08-12 22:15:00
5:35 PM,80.6,62.6,54,29.95,10.0,NW,10.4,-,N/A,,Partly Cloudy,320,2013-08-12 22:35:00
5:55 PM,78.8,62.6,57,29.95,10.0,NW,8.1,-,N/A,,Scattered Clouds,320,2013-08-12 22:55:00
6:15 PM,77.0,64.4,65,29.95,10.0,NW,8.1,-,N/A,,Clear,320,2013-08-12 23:15:00
6:35 PM,77.0,62.6,61,29.95,10.0,NNW,9.2,-,N/A,,Partly Cloudy,330,2013-08-12 23:35:00
6:55 PM,75.2,62.6,65,29.95,10.0,NNW,9.2,-,N/A,,Clear,330,2013-08-12 23:55:00
7:15 PM,75.2,60.8,61,29.95,10.0,NNW,8.1,-,N/A,,Clear,330,2013-08-13 00:15:00
7:35 PM,73.4,60.8,65,29.96,10.0,NNW,6.9,-,N/A,,Clear,330,2013-08-13 00:35:00
7:55 PM,69.8,59.0,68,29.96,10.0,NNW,6.9,-,N/A,,Clear,330,2013-08-13 00:55:00
8:15 PM,66.2,59.0,78,29.96,10.0,NNW,6.9,-,N/A,,Clear,340,2013-08-13 01:15:00
8:35 PM,64.4,59.0,83,29.97,10.0,North,6.9,-,N/A,,Clear,350,2013-08-13 01:35:00
8:55 PM,64.4,59.0,83,29.98,10.0,NNW,8.1,-,N/A,,Clear,340,2013-08-13 01:55:00
9:15 PM,64.4,57.2,77,29.99,10.0,NNW,8.1,-,N/A,,Clear,340,2013-08-13 02:15:00
9:35 PM,64.4,57.2,77,30.00,10.0,NNW,6.9,-,N/A,,Clear,340,2013-08-13 02:35:00
9:55 PM,64.4,57.2,77,30.00,10.0,North,8.1,-,N/A,,Clear,350,2013-08-13 02:55:00
10:15 PM,62.6,57.2,82,30.01,10.0,North,8.1,-,N/A,,Clear,360,2013-08-13 03:15:00
10:35 PM,62.6,57.2,82,30.01,10.0,North,8.1,-,N/A,,Clear,350,2013-08-13 03:35:00
10:55 PM,62.6,57.2,82,30.01,10.0,North,6.9,-,N/A,,Clear,350,2013-08-13 03:55:00